When you browse on this site, cookies collect data to enhance your experience and personalize the content and advertising you see.
Visit our Privacy Policy to learn more. By continuing to use the site, you agree to this use of cookies and data.
  • In Österreich
  • Länderverzeichnis
  • Für 7 Tage
  • Wassertemperatur
  • Satellitenkarten
  • Wetterkarte
  • News
  • Widgets
  • user-avatar
    Anmelden

    Stündliche Wetter Stow

    Heute, 19 Februar, Dienstag

    Zeit Temperatur Niederschläge Wind Luftdruck Luftfeuchtigkeit
    00:00 -8°C° 0 mm 1 m/S 743 mmHg 88%
    01:00 -8°C° 0 mm 0 m/S 744 mmHg 89%
    02:00 -8°C° 0 mm 0 m/S 744 mmHg 88%
    03:00 -9°C° 0 mm 0 m/S 744 mmHg 88%
    04:00 -9°C° 0 mm 0 m/S 744 mmHg 87%
    05:00 -9°C° 0 mm 0 m/S 745 mmHg 87%
    06:00 -9°C° 0 mm 0 m/S 745 mmHg 88%
    07:00 -9°C° 0 mm 1 m/S 746 mmHg 88%
    08:00 -8°C° 0 mm 1 m/S 746 mmHg 80%
    09:00 -6°C° 0 mm 1 m/S 747 mmHg 72%
    10:00 -4°C° 0 mm 1 m/S 747 mmHg 65%
    11:00 -4°C° 0 mm 0 m/S 747 mmHg 61%
    12:00 -2°C° 0 mm 0 m/S 747 mmHg 57%
    13:00 -1°C° 0 mm 0 m/S 747 mmHg 54%
    14:00 0°C° 0 mm 1 m/S 746 mmHg 53%
    15:00 0°C° 0 mm 1 m/S 746 mmHg 53%
    16:00 0°C° 0 mm 1 m/S 745 mmHg 53%
    17:00 -1°C° 0 mm 1 m/S 745 mmHg 58%
    18:00 -2°C° 0 mm 1 m/S 744 mmHg 64%
    19:00 -5°C° 0 mm 2 m/S 744 mmHg 70%
    20:00 -5°C° 0 mm 2 m/S 744 mmHg 70%
    21:00 -5°C° 0 mm 2 m/S 744 mmHg 71%
    22:00 -5°C° 0 mm 2 m/S 744 mmHg 72%
    23:00 -4°C° 0 mm 2 m/S 743 mmHg 71%

    Morgen, 20 Februar, Mittwoch

    Zeit Temperatur Niederschläge Wind Luftdruck Luftfeuchtigkeit
    00:00 -4°C° 0 mm 2 m/S 743 mmHg 69%
    01:00 -4°C° 0 mm 2 m/S 742 mmHg 68%
    02:00 -5°C° 0 mm 3 m/S 741 mmHg 68%
    03:00 -5°C° 0 mm 3 m/S 740 mmHg 67%
    04:00 -5°C° 0 mm 3 m/S 739 mmHg 66%
    05:00 -5°C° 0.2 mm 4 m/S 739 mmHg 73%
    06:00 -5°C° 0.2 mm 4 m/S 738 mmHg 79%
    07:00 -5°C° 0.2 mm 4 m/S 738 mmHg 86%
    08:00 -5°C° 0.5 mm 5 m/S 737 mmHg 87%
    09:00 -5°C° 0.5 mm 6 m/S 736 mmHg 88%
    10:00 -4°C° 0.5 mm 7 m/S 735 mmHg 90%
    11:00 -3°C° 0.1 mm 6 m/S 734 mmHg 90%
    12:00 -2°C° 0.1 mm 6 m/S 733 mmHg 90%
    13:00 0°C° 0.1 mm 5 m/S 732 mmHg 90%
    14:00 +1°C° 0.2 mm 5 m/S 731 mmHg 92%
    15:00 +1°C° 0.2 mm 6 m/S 730 mmHg 93%
    16:00 +1°C° 0.2 mm 6 m/S 729 mmHg 95%
    17:00 +2°C° 2.6 mm 6 m/S 728 mmHg 95%
    18:00 +2°C° 2.6 mm 6 m/S 728 mmHg 95%
    19:00 +3°C° 2.6 mm 5 m/S 727 mmHg 95%
    20:00 +3°C° 1.1 mm 6 m/S 726 mmHg 95%
    21:00 +4°C° 1.1 mm 6 m/S 726 mmHg 95%
    22:00 +5°C° 1.1 mm 6 m/S 725 mmHg 95%
    23:00 +5°C° 0.3 mm 6 m/S 725 mmHg 95%

    übermorgen, 21 Februar, Donnerstag

    Zeit Temperatur Niederschläge Wind Luftdruck Luftfeuchtigkeit
    00:00 +7°C° 0.3 mm 6 m/S 725 mmHg 95%
    01:00 +7°C° 0.3 mm 6 m/S 725 mmHg 95%
    02:00 +4°C° 0 mm 6 m/S 726 mmHg 93%
    03:00 +2°C° 0 mm 6 m/S 727 mmHg 91%
    04:00 -1°C° 0 mm 6 m/S 728 mmHg 90%
    05:00 0°C° 0 mm 5 m/S 729 mmHg 89%
    06:00 0°C° 0 mm 5 m/S 730 mmHg 88%
    07:00 -1°C° 0 mm 5 m/S 731 mmHg 86%
    08:00 -1°C° 0 mm 5 m/S 731 mmHg 85%
    09:00 -2°C° 0 mm 6 m/S 732 mmHg 83%
    10:00 -2°C° 0 mm 6 m/S 733 mmHg 81%
    11:00 -2°C° 0 mm 6 m/S 733 mmHg 79%
    12:00 -1°C° 0 mm 6 m/S 733 mmHg 77%
    13:00 0°C° 0 mm 5 m/S 734 mmHg 76%
    14:00 0°C° 0 mm 5 m/S 734 mmHg 76%
    15:00 0°C° 0 mm 5 m/S 734 mmHg 76%
    16:00 0°C° 0 mm 5 m/S 734 mmHg 77%
    17:00 -1°C° 0 mm 4 m/S 735 mmHg 80%
    18:00 -1°C° 0 mm 3 m/S 735 mmHg 84%
    19:00 -2°C° 0 mm 3 m/S 736 mmHg 87%
    20:00 -2°C° 0 mm 2 m/S 737 mmHg 89%
    21:00 -2°C° 0 mm 2 m/S 737 mmHg 90%
    22:00 -3°C° 0 mm 2 m/S 738 mmHg 91%
    23:00 -3°C° 0 mm 2 m/S 738 mmHg 91%

    22 Februar, Freitag

    Zeit Temperatur Niederschläge Wind Luftdruck Luftfeuchtigkeit
    00:00 -3°C° 0 mm 2 m/S 738 mmHg 92%
    01:00 -3°C° 0 mm 2 m/S 739 mmHg 92%
    02:00 -3°C° 0 mm 2 m/S 739 mmHg 92%
    03:00 -1°C° 0 mm 1 m/S 739 mmHg 91%
    04:00 -2°C° 0 mm 1 m/S 739 mmHg 91%
    05:00 -2°C° 0 mm 1 m/S 740 mmHg 91%
    06:00 -2°C° 0 mm 1 m/S 740 mmHg 91%
    07:00 -2°C° 0 mm 1 m/S 741 mmHg 91%
    08:00 -1°C° 0 mm 1 m/S 741 mmHg 85%
    09:00 0°C° 0 mm 1 m/S 742 mmHg 79%
    10:00 +1°C° 0 mm 1 m/S 742 mmHg 73%
    11:00 +2°C° 0 mm 1 m/S 742 mmHg 68%
    12:00 +4°C° 0 mm 1 m/S 742 mmHg 62%
    13:00 +5°C° 0 mm 1 m/S 742 mmHg 57%
    14:00 +5°C° 0 mm 1 m/S 742 mmHg 59%
    15:00 +5°C° 0 mm 1 m/S 741 mmHg 60%
    16:00 +4°C° 0 mm 1 m/S 741 mmHg 62%
    17:00 +3°C° 0 mm 1 m/S 741 mmHg 67%
    18:00 +2°C° 0 mm 1 m/S 741 mmHg 73%
    19:00 +1°C° 0 mm 1 m/S 741 mmHg 79%
    20:00 +1°C° 0 mm 1 m/S 741 mmHg 80%
    21:00 0°C° 0 mm 1 m/S 741 mmHg 82%
    22:00 -2°C° 0 mm 2 m/S 741 mmHg 83%
    23:00 -2°C° 0 mm 2 m/S 740 mmHg 83%

    23 Februar, Samstag

    Zeit Temperatur Niederschläge Wind Luftdruck Luftfeuchtigkeit
    00:00 -2°C° 0 mm 2 m/S 739 mmHg 82%
    01:00 -2°C° 0 mm 2 m/S 739 mmHg 82%
    02:00 -2°C° 0 mm 2 m/S 738 mmHg 82%
    03:00 -2°C° 0 mm 2 m/S 738 mmHg 82%
    04:00 -2°C° 0 mm 2 m/S 737 mmHg 82%
    05:00 -2°C° 0 mm 2 m/S 737 mmHg 82%
    06:00 -2°C° 0 mm 2 m/S 737 mmHg 82%
    07:00 -2°C° 0 mm 2 m/S 737 mmHg 83%
    08:00 0°C° 0 mm 3 m/S 736 mmHg 79%
    09:00 +1°C° 0 mm 3 m/S 736 mmHg 75%
    10:00 +3°C° 0 mm 3 m/S 736 mmHg 72%
    11:00 +5°C° 0 mm 3 m/S 735 mmHg 72%
    12:00 +7°C° 0 mm 3 m/S 734 mmHg 72%
    13:00 +9°C° 0 mm 3 m/S 734 mmHg 72%
    14:00 +10°C° 0 mm 3 m/S 733 mmHg 75%
    15:00 +10°C° 0 mm 3 m/S 732 mmHg 78%
    16:00 +10°C° 0 mm 3 m/S 731 mmHg 81%
    17:00 +9°C° 0.1 mm 3 m/S 731 mmHg 85%
    18:00 +9°C° 0.1 mm 3 m/S 730 mmHg 90%
    19:00 +7°C° 0.1 mm 4 m/S 729 mmHg 95%
    20:00 +7°C° 3.1 mm 4 m/S 728 mmHg 95%
    21:00 +7°C° 3.1 mm 5 m/S 727 mmHg 95%
    22:00 +7°C° 3.1 mm 5 m/S 726 mmHg 95%
    23:00 +8°C° 5.1 mm 6 m/S 724 mmHg 95%

    24 Februar, Sonntag

    Zeit Temperatur Niederschläge Wind Luftdruck Luftfeuchtigkeit
    00:00 +9°C° 5.1 mm 6 m/S 723 mmHg 94%
    01:00 +10°C° 5.1 mm 6 m/S 721 mmHg 93%
    02:00 +11°C° 0.7 mm 6 m/S 720 mmHg 93%
    03:00 +13°C° 0.7 mm 6 m/S 719 mmHg 93%
    04:00 +13°C° 0.7 mm 6 m/S 719 mmHg 93%
    05:00 +13°C° 0.2 mm 6 m/S 718 mmHg 92%
    06:00 +14°C° 0.2 mm 6 m/S 717 mmHg 91%
    07:00 +14°C° 0.2 mm 6 m/S 717 mmHg 89%
    08:00 +12°C° 0 mm 8 m/S 717 mmHg 83%
    09:00 +10°C° 0 mm 9 m/S 717 mmHg 77%
    10:00 +8°C° 0 mm 11 m/S 718 mmHg 70%
    11:00 +7°C° 0.1 mm 11 m/S 718 mmHg 71%
    12:00 +6°C° 0.1 mm 11 m/S 718 mmHg 72%
    13:00 +3°C° 0.1 mm 10 m/S 718 mmHg 74%
    14:00 +3°C° 0.1 mm 10 m/S 718 mmHg 73%
    15:00 +3°C° 0.1 mm 11 m/S 719 mmHg 72%
    16:00 +2°C° 0.1 mm 11 m/S 719 mmHg 71%
    17:00 +2°C° 0.2 mm 11 m/S 720 mmHg 71%
    18:00 +1°C° 0.2 mm 10 m/S 720 mmHg 71%
    19:00 0°C° 0.2 mm 10 m/S 721 mmHg 72%
    20:00 0°C° 0.1 mm 10 m/S 721 mmHg 71%
    21:00 -2°C° 0.1 mm 10 m/S 722 mmHg 69%
    22:00 -2°C° 0.1 mm 10 m/S 723 mmHg 68%
    23:00 -3°C° 0.1 mm 10 m/S 723 mmHg 69%
    Mehr zeigen